Location: Unspecified
(0.0000°N, 0.0000°E)
Time: 14:14:48
(UTC+00:00)

Courier 1B - Pass Details

Date: 12 February 2026
Orbit: 962 x 1208 km, 28.3° (Epoch: 16 March)

Event Time Altitude Azimuth Distance (km) Brightness Sun altitude
Rises 20:21:53 0° 276° (W) 3,945 11.6 -30.9°
Reaches altitude 10° 20:25:33 10° 293° (WNW) 3,028 10.6 -31.8°
Maximum altitude 20:30:40 19° 337° (NNW) 2,441 9.6 -33.1°
Enters shadow 20:31:43 19° 347° (NNW) 2,477 9.5 -33.3°
